Location: Cran-Gévrier
(45.9039°N, 6.1012°E)
Time: 13:26:49
(UTC+00:00)

Cosmos 1943 Rocket - Visible Passes

Search period start: 25 September 2023 00:00
Search period end: 05 October 2023 00:00
Orbit: 810 x 845 km, 71.0° (Epoch: 25 September)

Date Brightness Start Highest point End Pass type
(mag) Time Alt. Az. Time Alt. Az. Time Alt. Az.
25 Sep 4.0 18:36:04 10° N 18:39:09 15° NE 18:41:31 12° ENE visible
25 Sep 2.6 20:18:25 10° NNW 20:23:02 54° NNE 20:23:02 54° NNE visible
25 Sep 4.7 22:03:11 10° NW 22:04:33 15° WNW 22:04:33 15° WNW visible
26 Sep 4.1 18:16:58 10° N 18:19:40 13° NE 18:22:20 10° ENE visible
26 Sep 2.4 19:59:06 10° NNW 20:04:13 55° NE 20:04:13 55° NE visible
26 Sep 4.5 21:43:37 10° NW 21:45:44 18° WNW 21:45:44 18° WNW visible
27 Sep 4.2 17:57:56 10° NNE 18:00:09 12° NE 18:02:22 10° ENE visible
27 Sep 2.4 19:39:47 10° NNW 19:45:20 51° ENE 19:45:26 51° ENE visible
27 Sep 4.2 21:24:05 10° NW 21:26:57 23° WNW 21:26:57 23° WNW visible
28 Sep 2.5 19:20:29 10° NNW 19:25:57 46° ENE 19:26:42 43° E visible
28 Sep 3.9 21:04:36 10° NW 21:08:13 28° W 21:08:13 28° W visible
29 Sep 2.7 19:01:11 10° NNW 19:06:33 41° NE 19:08:01 35° E visible
29 Sep 3.5 20:45:08 10° NW 20:49:33 33° W 20:49:33 33° W visible
30 Sep 2.8 18:41:53 10° NNW 18:47:09 37° NE 18:49:24 27° E visible
30 Sep 3.2 20:25:41 10° NW 20:30:54 39° WSW 20:30:56 39° WSW visible
01 Oct 3.0 18:22:37 10° NNW 18:27:43 33° NE 18:30:51 20° ESE visible
01 Oct 3.0 20:06:15 10° NW 20:11:36 44° WSW 20:12:23 42° SW visible
02 Oct 3.1 18:03:21 10° N 18:08:18 30° NE 18:12:23 14° ESE visible
02 Oct 2.9 19:46:50 10° NW 19:52:18 50° WSW 19:53:56 38° SSW visible
03 Oct 3.2 17:44:05 10° N 17:48:53 27° NE 17:53:36 10° ESE visible
03 Oct 2.7 19:27:26 10° NNW 19:32:59 57° WSW 19:35:35 30° S visible
04 Oct 2.5 19:08:02 10° NNW 19:13:40 65° WSW 19:17:22 21° S visible
